Regional Weather Roundup
Issued by NWS

Home | Current Version | Previous Version | Graphics & Text | Print | Product List | Glossary On
Versions: 1 2 3 4 5 6 7 8 9 10 11 12 13 14 15 16 17 18 19 20 21 22 23 24 25 26 27 28 29 30 31 32 33 34 35 36 37 38 39 40 41 42 43 44 45 46 47 48 49 50
000
ASUS43 KDMX 300307
RWRIA

WEATHER ROUNDUP FOR IOWA
NATIONAL WEATHER SERVICE DES MOINES IA
1000 PM CDT MON JUN 29 2015

NOTE: "FAIR" INDICATES FEW OR NO CLOUDS BELOW 12,000 FEET WITH NO
SIGNIFICANT WEATHER AND/OR OBSTRUCTIONS TO VISIBILITY.

* - THESE STATIONS ARE NOT NWS STATIONS...THUS NOT UNDER NWS
QUALITY CONTROL.  THEY ALSO DO NOT REPORT WEATHER SUCH
AS PRECIPITATION OR FOG.

IAZ001>003-012>014-020>022-031>034-043>046-300400-
   NORTHWEST IOWA

CITY           SKY/WX    TMP DP  RH WIND       PRES   REMARKS
CARROLL *      CLOUDY    70  66  88 W8        29.90R
CHEROKEE *     CLEAR     68  64  88 CALM      29.90R
DENISON *      CLOUDY    70  66  88 CALM      29.89R
LE MARS *      CLEAR     70  64  83 CALM      29.91R
ORANGE CITY *  CLEAR     66  61  82 CALM      29.91R
SHELDON *      CLOUDY    68  68 100 W6        29.89R
SIOUX CITY     CLEAR     70  63  78 CALM      29.91R
SPENCER        MOCLDY    67  63  87 W8        29.89R
STORM LAKE *   CLEAR     68  64  88 W9        29.92R
$$

IAZ055>058-069>071-079>083-090>094-300400-
   SOUTHWEST IOWA

CITY           SKY/WX    TMP DP  RH WIND       PRES   REMARKS
ATLANTIC *     CLOUDY    68  64  88 SW3       29.91R
AUDUBON *      CLEAR     68  63  83 CALM      29.92R
CLARINDA *     CLEAR     70  68  94 CALM      29.92S
COUNCIL BLFS * PTCLDY    75  63  64 W5        29.92R
CRESTON *      CLEAR     72  63  73 W5        29.92R
HARLAN  *      CLEAR     68  68 100 CALM      29.94R
LAMONI         CLEAR     72  66  81 W6        29.90R
RED OAK *      CLEAR     70  66  88 CALM      29.91R
SHENANDOAH *   CLEAR     72  66  83 CALM      29.92R
$$

IAZ047>049-059>061-072>074-084-300400-
   CENTRAL IOWA

CITY           SKY/WX    TMP DP  RH WIND       PRES   REMARKS
AMES           CLEAR     69  65  86 W7        29.86R
ANKENY *       CLEAR     72  66  83 W6        29.86R
CHARITON *     PTCLDY    70  66  88 W6        29.88S
DES MOINES     CLOUDY    73  65  75 W3        29.86S
GRINNELL*      CLEAR     70  64  83 W6        29.87R
KNOXVILLE *    CLEAR     70  66  88 W6        29.86R
MARSHALLTOWN   CLEAR     69  65  86 W3        29.85R
PELLA *        CLEAR     72  68  88 W5        29.87R
PERRY *          N/A     70  66  88 W8        29.88R
$$

IAZ004>006-015-016-023>025-035-036-300400-
   NORTH CENTRAL IOWA

CITY           SKY/WX    TMP DP  RH WIND       PRES   REMARKS
ALGONA *       CLEAR     70  63  78 W8        29.87R
CLARION *      CLEAR     70  64  83 W6        29.87R
ESTHERVILLE    PTCLDY    67  61  81 W7        29.87R
FORT DODGE *   CLEAR     70  63  78 SW3       29.88R
MASON CITY     CLEAR     69  64  84 W5        29.86R
FOREST CITY *  CLEAR     68  64  88 W5        29.85S
IOWA FALLS *     N/A     68  64  88 W6        29.88R
$$

IAZ007>011-017>019-026>030-037>042-050>054-066-300400-
   NORTHEAST IOWA

CITY           SKY/WX    TMP DP  RH WIND       PRES   REMARKS
CEDAR RAPIDS   PTCLDY    70  67  90 NW3       29.83R
CHARLES CITY * CLEAR     64  61  88 VRB5      29.87S
CLINTON *      MOCLDY    66  63  88 N13       29.86R THUNDER
DECORAH *        N/A    N/A N/A N/A MISG        N/A
DUBUQUE        RAIN      62  60  93 SW7       29.85F FOG
MONTICELLO *   LGT RAIN  64 N/A N/A VRB6G14   29.84F
OELWEIN *        N/A     64  63  94 NE7       29.89R
WATERLOO       CLEAR     68  60  75 NE8       29.85R
$$

IAZ064-065-067-068-078-300400-
   EAST CENTRAL IOWA

CITY           SKY/WX    TMP DP  RH WIND       PRES   REMARKS
DAVENPORT      MOCLDY    66  62  87 N7        29.85R
IOWA CITY      CLEAR     72  66  81 W6        29.84R
MT. PLEASANT * PTCLDY    72  64  78 W5        29.85R
MUSCATINE *    CLEAR     72  64  78 W7        29.83R
QUAD CITIES    TSTM      67  62  84 NW28G46   29.84R
$$

IAZ062-063-075>077-085>089-095>099-300400-
   SOUTHEAST IOWA

CITY           SKY/WX    TMP DP  RH WIND       PRES   REMARKS
BURLINGTON     CLEAR     69  68  96 SW3       29.83R
FAIRFIELD *    CLEAR     70  66  88 W6        29.85R
FORT MADISON * CLEAR     72  68  88 CALM      29.85S
KEOKUK *       CLEAR     70  68  94 SW5       29.84S
OSKALOOSA *      N/A     68  64  88 W3        29.86R
CENTERVILLE *  CLEAR     70  66  88 W7        29.90R
OTTUMWA        CLEAR     69  66  90 W6        29.84R
WASHINGTON *   CLEAR     68  66  94 W5        29.85R
$$

ABBREVIATIONS USED IN REMARKS
   TC - TEMPERATURES IN CELSIUS
  WCI - WIND CHILL INDEX
   HX - HEAT INDEX
  VSB - VISIBILITY
$$




USA.gov is the U.S. government's official web portal to all federal, state and local government web resources and services.